Regional Weather Roundup
Issued by NWS

Home | Current Version | Previous Version | Text Only | Print | Product List | Glossary On
Versions: 1 2 3 4 5 6 7 8 9 10 11 12 13 14 15 16 17 18 19 20 21 22 23 24 25 26 27 28 29 30 31 32 33 34 35 36 37 38 39 40 41 42 43 44 45 46 47 48 49 50
000
ASUS43 KDTX 231910
RWRMI
MICHIGAN HOURLY REGIONAL WEATHER ROUNDUP
NATIONAL WEATHER SERVICE DETROIT/PONTIAC MI
300 PM EDT WED APR 23 2014

NOTE: "FAIR" INDICATES FEW OR NO CLOUDS BELOW 12,000 FEET WITH NO
SIGNIFICANT WEATHER AND/OR OBSTRUCTION TO VISIBILITY.

MIZ047>049-052>055-059>063-066>070-074>076-081>083-232000-
SOUTHEAST LOWER MICHIGAN

CITY           SKY/WX    TMP DP  RH WIND       PRES   REMARKS
ADRIAN         SUNNY     54  27  35 VRB6      30.08F
ALMA           SUNNY     51  11  19 N6        30.11S
ANN ARBOR      SUNNY     54  23  30 N9        30.07F
BAD AXE        SUNNY     45   8  22 N10G17    30.11S
CARO           SUNNY     50  21  32 NW8       30.11S
DETROIT CITY   SUNNY     55  25  31 N9        30.09S
DETROIT        MOSUNNY   55  27  34 NW9G20    30.08F
FLINT          SUNNY     52  14  22 N12       30.12S
GROSSE ILE     SUNNY     54  23  30 N10G17    30.06F
HILLSDALE      SUNNY     54  24  31 N9        30.09R
HOWELL         SUNNY     50  17  27 N9        30.09S

CITY           SKY/WX    TMP DP  RH WIND       PRES   REMARKS
JACKSON        SUNNY     54  20  26 VRB5G17   30.09S
LAMBERTVILLE   MOSUNNY   54  30  40 NW6       30.08S
LANSING        SUNNY     52  20  28 CALM      30.11F
LAPEER         FAIR      49  19  29 N9G18     30.10S
MASON          SUNNY     52  23  32 NE9       30.10S
MONROE         MOSUNNY   54  28  37 NE5       30.06F
MT. CLEMENS    MOSUNNY   52  26  36 N8G22     30.07S
PONTIAC        MOSUNNY   50  21  32 NW10G21   30.08S
PORT HOPE        N/A     40  24  53 N7        30.11S
PORT HURON     SUNNY     46  30  53 NE8G17    30.10R
TRI CITIES     SUNNY     54  17  23 N7        30.11S
TROY           SUNNY     51  26  37 NW7       30.09S
SAGINAW HB     SUNNY     52  18  25 NE3       30.11S
YPSILANTI      SUNNY     57  24  28 NE12G18   30.08F
$$
MIZ043>046-050>051-056>058-064>065-071>073-077>080-232000-
SOUTHWEST LOWER MICHIGAN

CITY           SKY/WX    TMP DP  RH WIND       PRES   REMARKS
BATTLE CREEK   SUNNY     53  22  29 VRB7      30.11S
BENTON HARBOR  SUNNY     42  31  64 VRB7      30.16S
BIG RAPIDS     SUNNY     53  16  23 NE7       30.10F
COLDWATER      SUNNY     52  24  32 N3        30.11R
FREMONT        FAIR      53  17  24 CALM      30.11S
HOLLAND        MOSUNNY   47  29  49 W14G20    30.15S
GRAND RAPIDS   MOSUNNY   55  21  26 VRB3      30.12S
IONIA          FAIR      52  21  29 N9        30.10S
KALAMAZOO      SUNNY     54  22  28 VRB5      30.11F
LUDINGTON      MOSUNNY   48  23  38 N13       30.16R
MARSHALL       SUNNY     52  20  28 CALM      30.10R
MOUNT PLEASANT SUNNY     53  11  18 NW5       30.10S
MUSKEGON       PTSUNNY   47  29  49 W13       30.15R
SOUTH HAVEN    SUNNY     44  31  59 NW13      30.16S
$$
MIZ016>042-232000-
NORTHERN LOWER MICHIGAN

CITY           SKY/WX    TMP DP  RH WIND       PRES   REMARKS
ALPENA         SUNNY     48   9  20 NW9G18    30.11F
BEAVER ISLAND  SUNNY     46  18  32 W10       30.17S
BELLAIRE       SUNNY     48  16  28 NW8       30.15S
CADILLAC       SUNNY     49  11  21 NW13G20   30.10S
CHARLEVOIX     SUNNY     43  17  34 W10       30.19F
FRANKFORT      SUNNY     43  21  41 N7        30.17F
GAYLORD        SUNNY     48  12  23 CALM      30.11S
GRAYLING       SUNNY     50   6  16 N7G16     30.11S
HARBOR SPRINGS SUNNY     40  27  59 SW9       30.14F WCI  34
HOUGHTON LAKE  SUNNY     52   8  17 MISG      30.10S
MANISTEE       MOSUNNY   43  21  42 NW15      30.17R
OSCODA         SUNNY     46  17  31 NE14      30.10S
PELLSTON       SUNNY     50  18  28 N10       30.14S
ROGERS CITY    SUNNY     45  17  32 N13       30.13F
TRAVERSE CITY  PTSUNNY   44   9  23 NE10      30.16S
$$
MIZ007>008-015-232000-
EASTERN UPPER MICHIGAN

CITY           SKY/WX    TMP DP  RH WIND       PRES   REMARKS
KINROSS        SUNNY     45  16  31 NW18      30.12S
MACKINAC ISLAN SUNNY     46  17  30 N10G20    30.13S
NEWBERRY       SUNNY     43  21  42 N8G20     30.15S
S. S. MARIE    SUNNY     44  18  35 NW13      30.12S
MUNISING         N/A     39  29  67 NE10      30.18F WCI  32
$$
MIZ004>006-011>014-085-232000-
CENTRAL UPPER MICHIGAN

CITY           SKY/WX    TMP DP  RH WIND       PRES   REMARKS
MANISTIQUE     SUNNY     50  16  26 CALM      30.15S
ESCANABA       MOSUNNY   45  19  36 SE12      30.16F
MENOMINEE      PTSUNNY   46   7  19 SE9       30.18F
SAWYER-GWINN   SUNNY     46  18  31 CALM      30.15F
$$
MIZ001>003-009>011-084-232000-
WESTERN UPPER MICHIGAN

CITY           SKY/WX    TMP DP  RH WIND       PRES   REMARKS
IRON MOUNTAIN  PTSUNNY   52  14  22 SE8       30.12F
HOUGHTON       SUNNY     47  25  42 S7        30.13F
COPPER HARBOR    N/A     40  28  62 NE5       30.15F
IRONWOOD       CLOUDY    52  21  30 SE7       30.07F
$$

ABBREVIATIONS USED IN REMARKS
   TC - TEMPERATURE IN CELSIUS
  WCI - WIND CHILL INDEX
   HX - HEAT INDEX
  VSB - VISIBILITY




USA.gov is the U.S. government's official web portal to all federal, state and local government web resources and services.